OK2JCZ-6 Weather Reports


time (UTC)temp
F
wind
direction
speed
knots
gust
knots
rain 1hr
in
rain 24hr
in
rain mn
in
humidity
%
barometer
mb
20260504222439 60 93 7.0 8.7 0.00 0.00 0.00 34 1011.3
20260504220439 60 117 6.1 7.0 0.00 0.00 0.00 35 1011.4
20260504213939 62 107 7.8 8.7 0.00 0.00 0.00 33 1011.6
20260504211939 62 101 7.0 9.6 0.00 0.00 0.00 33 1011.7
20260504211439 62 86 7.8 8.7 0.00 0.00 0.00 33 1011.8
20260504210939 62 101 7.0 8.7 0.00 0.00 0.00 33 1011.9
20260504204439 62 105 7.0 8.7 0.00 0.00 0.00 34 1012.0
20260504202943 60 103 6.1 8.7 0.00 0.00 0.00 36 1012.0
20260504200939 58 128 5.2 6.1 0.00 0.00 0.00 40 1012.2
20260504194939 60 127 4.3 5.2 0.00 0.00 0.00 39 1012.2
20260504194439 59 127 6.1 7.0 0.00 0.00 0.00 39 1012.1
20260504193939 59 130 5.2 6.1 0.00 0.00 0.00 40 1012.2
20260504193439 60 130 4.3 5.2 0.00 0.00 0.00 40 1012.2
20260504192939 60 130 4.3 5.2 0.00 0.00 0.00 40 1012.2
20260504192439 60 130 4.3 4.3 0.00 0.00 0.00 39 1012.2
20260504191939 60 130 5.2 6.1 0.00 0.00 0.00 39 1012.2
20260504191439 60 130 4.3 6.1 0.00 0.00 0.00 40 1012.2
20260504190939 60 130 4.3 5.2 0.00 0.00 0.00 39 1012.2
20260504190439 61 131 4.3 5.2 0.00 0.00 0.00 39 1012.1
20260504184939 61 133 5.2 5.2 0.00 0.00 0.00 40 1012.1
20260504184442 61 133 4.3 5.2 0.00 0.00 0.00 40 1012.0
20260504183939 61 134 4.3 5.2 0.00 0.00 0.00 39 1012.0
20260504183439 61 134 5.2 6.1 0.00 0.00 0.00 39 1012.0
20260504182939 61 134 5.2 7.0 0.00 0.00 0.00 40 1012.0
20260504182439 62 136 4.3 5.2 0.00 0.00 0.00 40 1012.0
20260504181942 62 136 4.3 4.3 0.00 0.00 0.00 39 1012.0
20260504180939 62 137 5.2 5.2 0.00 0.00 0.00 39 1011.9
20260504180439 62 138 5.2 6.1 0.00 0.00 0.00 39 1011.9
20260504175939 62 138 4.3 5.2 0.00 0.00 0.00 39 1011.9
20260504175439 63 142 5.2 5.2 0.00 0.00 0.00 40 1011.9
20260504174939 63 144 3.5 4.3 0.00 0.00 0.00 40 1011.9
20260504174439 64 144 4.3 4.3 0.00 0.00 0.00 39 1011.9
20260504173939 64 144 3.5 4.3 0.00 0.00 0.00 38 1011.8
20260504173439 65 144 5.2 5.2 0.00 0.00 0.00 37 1011.7
20260504172439 67 145 4.3 5.2 0.00 0.00 0.00 37 1011.8
20260504171939 67 145 3.5 3.5 0.00 0.00 0.00 38 1011.8
20260504170939 68 144 4.3 5.2 0.00 0.00 0.00 37 1011.7
20260504170439 69 144 3.5 4.3 0.00 0.00 0.00 37 1011.7
20260504160439 71 144 5.2 7.8 0.00 0.00 0.00 35 1011.9
20260504150939 73 148 7.0 8.7 0.00 0.00 0.00 34 1012.0
20260504150439 73 129 9.6 10.4 0.00 0.00 0.00 34 1012.0
20260504140939 76 148 7.0 8.7 0.00 0.00 0.00 34 1012.4
20260504140439 74 215 5.2 7.0 0.00 0.00 0.00 32 1012.5
20260504130439 73 182 6.1 9.6 0.00 0.00 0.00 31 1012.9
20260504100439 67 155 6.1 7.8 0.00 0.00 0.00 38 1014.7
20260504081939 64 133 4.3 5.2 0.00 0.00 0.00 39 1014.7
20260504081439 62 112 4.3 7.0 0.00 0.00 0.00 39 1014.6
20260504080439 60 129 6.1 7.8 0.00 0.00 0.00 41 1014.5
20260504050439 52 114 5.2 7.8 0.00 0.00 0.00 47 1014.0
20260504041939 48 110 5.2 7.0 0.00 0.00 0.00 50 1013.9
20260504040939 49 110 3.5 3.5 0.00 0.00 0.00 48 1014.0
20260504040439 48 128 4.3 7.0 0.00 0.00 0.00 48 1014.1
20260504035939 48 135 3.5 4.3 0.00 0.00 0.00 48 1014.1
20260504033439 47 125 8.7 10.4 0.00 0.00 0.00 51 1013.8
20260504032939 47 114 7.0 8.7 0.00 0.00 0.00 50 1013.8
20260504032439 45 117 6.1 9.6 0.00 0.00 0.00 50 1013.9
20260504031439 46 138 4.3 4.3 0.00 0.00 0.00 51 1014.1
20260504030938 46 139 2.6 3.5 0.00 0.00 0.00 49 1014.2
20260504030439 46 139 2.6 2.6 0.00 0.00 0.00 48 1014.2
20260504025939 46 139 2.6 3.5 0.00 0.00 0.00 48 1014.2
20260504023939 48 139 3.5 4.3 0.00 0.00 0.00 46 1014.2
20260504023439 49 139 2.6 4.3 0.00 0.00 0.00 46 1014.2
20260504015939 49 157 4.3 5.2 0.00 0.00 0.00 45 1014.1
20260504015439 50 158 5.2 6.1 0.00 0.00 0.00 44 1014.1
20260504013938 50 148 7.0 7.8 0.00 0.00 0.00 44 1014.0
20260504012938 50 145 7.0 9.6 0.00 0.00 0.00 43 1013.9
20260504012439 50 140 9.6 13.0 0.00 0.00 0.00 43 1013.9
20260504011938 50 142 7.8 9.6 0.00 0.00 0.00 44 1013.9
20260504011439 50 141 9.6 11.3 0.00 0.00 0.00 43 1013.9
20260504010938 50 148 7.8 8.7 0.00 0.00 0.00 43 1013.9
20260504010438 50 145 7.8 9.6 0.00 0.00 0.00 43 1014.0
20260504005939 50 142 8.7 9.6 0.00 0.00 0.00 43 1014.0
20260504004938 50 141 8.7 9.6 0.00 0.00 0.00 43 1014.0
20260504003939 50 144 7.8 9.6 0.00 0.00 0.00 43 1014.1
20260504001938 50 134 8.7 9.6 0.00 0.00 0.00 42 1014.2
20260504001439 50 141 7.0 8.7 0.00 0.00 0.00 42 1014.2
20260504000938 50 140 7.8 9.6 0.00 0.00 0.00 41 1014.2
20260504000439 50 133 8.7 10.4 0.00 0.00 0.00 41 1014.2
20260503235939 50 139 8.7 9.6 0.00 0.00 0.00 41 1014.3
20260503235438 50 138 9.6 12.2 0.00 0.00 0.00 41 1014.3
20260503234938 50 136 9.6 10.4 0.00 0.00 0.00 42 1014.3
20260503232939 50 146 7.8 10.4 0.00 0.00 0.00 42 1014.4
20260503225938 51 156 7.8 8.7 0.00 0.00 0.00 41 1014.6
20260503223938 52 148 8.7 9.6 0.00 0.00 0.00 41 1014.7
20260503223438 52 144 7.8 8.7 0.00 0.00 0.00 41 1014.7